Weather in Lyagushye

Russia / Novosibirsk Oblast     54°24′07″N   77°59′24″E
temp.,
°C
wind,
m/s
gust,
m/s
humid.,
%
clouds,
%
prec.,
mm/h
press.,
hPa
HPBL,
m
6 august, fri
fri601:00+15nnw349252 0.6 100951
04:00+13nw34942 0.0 100856
07:00+13nw47947 0.0 1009130
10:00+16nw578021 0.0 1009286
13:00+19nw576710 0.0 1009610
16:00+22nw5754100 0.0 1009997
19:00+21nw355599 0.0 1008691
22:00+18nnw226710 0.0 100811
7 august, sat
sat701:00+16w007420 0.0 100811
04:00+17nw1170100 0.1 100812
07:00+17sse337351 0.2 100841
10:00+20sse345929 0.0 1008254
13:00+23sw3448100 0.0 1008867
16:00+20s4668100 0.3 1008200
19:00+22sse125958 0.3 1008331
22:00+19ese44684 0.0 100747
8 august, sun
sun801:00+18se3471100 0.0 100743
04:00+17se457748 0.1 100671
07:00+16se228560 0.4 100723
10:00+18e3578100 0.1 1007118
13:00+23e565793 0.1 1006609
16:00+24e695178 0.1 1005436
19:00+23ene1014565 0.1 1005588
22:00+18e8148240 2.5 1006334
9 august, mon
mon901:00+16e61091100 2.8 1006184
04:00+16e4694100 1.2 1006102
07:00+16ene4792100 1.4 1006129
10:00+17e359092 0.4 1007163
13:00+17nne5892100 0.8 1007199
16:00+20nne687590 0.2 1007553
19:00+20nne687791 0.3 1007377
22:00+16n4794100 1.5 1006102
10 august, tue
tue1001:00+16n4898100 4.8 1006122
04:00+15n349858 2.1 100658
07:00+15ne2296100 2.5 100623
10:00+17w1190100 1.8 1006165
13:00+17s1193100 4.9 100666
16:00+18ssw229298 0.8 1006101
19:00+19e018272 1.4 1006324
22:00+17s2292100 0.8 100516